Regional Weather Roundup
Issued by NWS

Home | Current Version | Previous Version | Graphics & Text | Print | Product List | Glossary On
Versions: 1 2 3 4 5 6 7 8 9 10 11 12 13 14 15 16 17 18 19 20 21 22 23 24 25 26 27 28 29 30 31 32 33 34 35 36 37 38 39 40 41 42 43 44 45 46 47 48 49 50
000
ASUS45 KSLC 191510
RWRUT

UTAH REGIONAL WEATHER ROUNDUP
NATIONAL WEATHER SERVICE SALT LAKE CITY UT
800 AM MST FRI DEC 19 2014

UTZ001>011-023>025-191600-

NORTHERN UTAH

CITY           SKY/WX    TMP DP  RH WIND       PRES   REMARKS
BRIGHAM CITY   CLOUDY    31  28  87 E5        30.19F WCI  27
HILL AFB       MOCLDY    31  23  72 SE8       30.18S WCI  23
LOGAN          CLOUDY    31  27  85 SE3       30.17F
OGDEN          MOCLDY    31  24  75 S8        30.18S WCI  23
PROVO AIRPORT  PTCLDY    27  23  86 CALM      30.23S
SALT LAKE CITY MOCLDY    32  27  81 SE9       30.19S WCI  24
VERNAL         CLOUDY    26  23  88 SE3       30.26S
WENDOVER       CLOUDY    23  18  80 CALM      30.18S
HEBER CITY     PTCLDY    18  16  93 CALM      30.22S
WEST JORDAN    CLEAR     32  30  93 S15G21    30.20S WCI  22

$$

UTZ012>022-026-027-191600-

SOUTHERN/CENTRAL UTAH

CITY           SKY/WX    TMP DP  RH WIND       PRES   REMARKS
BLANDING       MOCLDY    23  22  95 N7        30.31S WCI  14
BRYCE CANYON   PTCLDY     7   4  87 W9        30.22S WCI  -7
CEDAR CITY     MOCLDY    23  19  85 CALM      30.21R
DELTA          MOCLDY    26  23  91 N3        30.22S
MILFORD        MOCLDY    27  22  81 S8        30.20R WCI  19
MOAB/CYNLANDS  CLOUDY    32  31  96 CALM      30.24R FOG
PRICE          PTCLDY    18  13  80 CALM      30.21S
ST GEORGE      CLOUDY    34  28  80 S3        30.30R

$$

REGIONAL REPORTS     COLORADO/ARIZONA

CITY           SKY/WX    TMP DP  RH WIND       PRES   REMARKS
CRAIG, CO      LGT SNOW  24  19  81 SW3       30.23S VSB 1
GRAND JUNCTION LGT SNOW  30  28  92 CALM      30.25R FOG
RIFLE          FLURRIES  29  23  78 S3        30.24S
MONTROSE       CLOUDY    29  25  85 NW6       30.26R WCI  23
CORTEZ         CLEAR     19  15  84 NE7       30.24S WCI  10
PAGE, AZ       CLEAR     34  27  75 CALM      30.26R
GRAND CANYON   CLEAR     15  13  91 E3        30.25S
KINGMAN        CLEAR     29  27  92 CALM      30.23R
FLAGSTAFF      PTCLDY    11   7  84 CALM      30.24R

$$

REGIONAL REPORTS    NEVADA/IDAHO/WYOMING

CITY           SKY/WX    TMP DP  RH WIND       PRES   REMARKS
LAS VEGAS, NV  MOCLDY    42  35  76 SW8       30.20S
ELY            MOCLDY    19  16  88 SE10      30.19S WCI   7
ELKO           CLOUDY    29  25  85 NW6       30.13F WCI  23
POCATELLO, ID  MOCLDY    38  29  70 S15       30.12S WCI  29
BURLEY         CLOUDY    39  25  57 S17       30.07F WCI  30
EVANSTON, WY   PTCLDY    20  18  92 SW9       30.15S WCI   9
ROCK SPRINGS   CLOUDY    23  16  74 SW16      30.14S WCI  10
KEMMERER       CLOUDY    27  21  80 SW9G17    30.14S WCI  17

$$


USA.gov is the U.S. government's official web portal to all federal, state and local government web resources and services.